Theta_e
334 334 332 333 332 328 324 321 321 319 323 326 323 324 323 322 321 319 318 321 319 316 314 311 309 307 307 306 306 306 306 307 307 308 311 313 315 316
331 332 332 332 332 329 325 321 318 321 320 325 323 321 320 320 321 313 317 319 316 313 312 308 306 305 305 304 305 306 306 305 305 307 310 310 312 313
326 328 330 331 329 327 324 321 316 322 321 320 320 319 317 317 316 312 315 312 312 312 310 307 304 304 303 304 304 304 304 303 304 306 307 308 309 310
324 325 327 333 328 327 325 322 318 323 321 318 317 316 315 315 314 310 309 310 307 311 310 305 304 304 304 304 303 303 302 302 303 304 305 306 306 307
324 324 324 327 324 325 326 324 320 324 322 318 316 317 314 313 311 310 306 307 308 311 310 306 305 304 305 305 303 304 302 301 301 301 303 304 304 305
326 324 325 324 322 323 324 325 321 321 319 318 315 316 313 312 312 309 307 306 306 309 309 304 305 305 306 305 303 304 302 301 301 302 302 302 302 302
321 325 323 324 324 323 324 322 321 321 319 318 315 315 312 309 309 310 307 306 306 307 303 302 301 296 296 302 303 301 300 301 301 301 301 301 300 301
309 314 317 322 321 318 317 319 321 322 320 319 317 314 315 313 313 310 309 305 304 306 301 297 302 299 297 298 302 301 299 299 300 300 301 301 301 300
306 308 312 318 317 322 319 314 315 316 320 323 318 318 316 315 312 310 307 307 305 302 305 298 297 299 298 301 302 300 299 299 299 300 301 301 300 299
305 307 307 309 312 316 321 322 320 321 319 320 323 323 321 319 315 312 311 308 307 306 304 300 298 299 299 300 301 300 299 298 299 300 301 301 299 299
304 305 305 306 305 301 314 318 322 322 316 313 312 313 309 309 311 312 307 306 304 305 304 299 295 298 299 299 298 301 300 298 299 300 301 300 300 301
302 302 304 303 302 298 305 315 317 321 322 316 315 309 309 310 308 315 310 307 304 304 306 301 295 295 294 297 299 299 294 299 300 300 300 300 299 303
301 301 303 302 300 296 297 308 315 319 319 322 319 318 318 314 314 316 314 313 308 309 307 305 296 294 294 293 297 299 294 294 295 297 299 299 298 300
298 299 299 297 295 297 297 299 299 303 318 321 320 317 316 316 316 316 316 317 318 315 308 306 300 297 293 292 293 293 293 291 294 296 299 300 299 298
296 296 295 294 296 300 300 299 299 308 314 317 319 320 321 322 320 318 317 316 312 312 310 307 303 297 296 294 292 292 289 292 295 294 297 295 297 298
297 296 295 295 296 299 302 304 306 309 312 314 318 320 321 321 319 320 314 313 309 306 306 307 303 300 297 295 294 291 289 295 293 292 296 295 296 297
294 294 293 292 293 300 305 306 307 308 309 313 316 318 318 319 319 321 317 313 311 305 304 301 300 299 297 295 291 290 291 293 292 292 295 295 294 295
291 291 292 293 292 295 302 306 307 307 307 312 314 317 317 317 318 319 315 313 311 308 302 299 298 297 296 296 296 290 291 292 291 292 294 295 294 294
289 289 291 293 294 296 298 303 307 308 307 309 312 315 317 317 313 317 315 314 311 308 305 301 302 298 294 292 291 296 292 292 290 289 291 295 293 293
290 290 291 293 294 296 298 300 307 306 307 308 311 313 316 317 316 317 316 314 310 307 303 302 302 303 302 294 289 289 294 292 290 289 292 293 293 295
291 291 292 294 295 297 299 301 306 309 309 309 312 313 313 312 316 316 316 304 304 307 303 301 304 293 295 293 289 288 291 296 294 291 293 292 292 294
292 292 292 294 295 297 299 301 304 305 304 308 308 309 311 314 314 315 316 313 310 308 307 306 299 297 296 293 288 288 287 290 295 296 295 294 292 295
293 293 292 294 295 298 299 300 302 305 306 307 307 305 306 308 311 314 315 315 313 310 308 300 301 301 296 293 291 289 287 287 288 287 288 296 297 298
Wind_Speed
5 5 5 4 4 3 3 3 6 5 6 5 3 3 3 4 5 5 6 11 10 8 6 3 1 3 5 7 8 9 9 9 11 11 12 13 16 18
4 5 5 4 4 5 5 4 3 4 4 2 2 4 4 4 5 5 6 9 8 7 4 3 1 3 4 6 6 8 9 10 11 11 12 13 15 17
6 6 6 5 2 2 4 4 5 4 4 2 2 3 3 6 4 3 5 4 3 5 4 4 2 1 2 4 7 8 10 11 12 13 14 14 14 16
6 7 7 3 1 1 4 6 6 6 5 5 2 3 3 4 4 5 3 3 2 5 5 4 3 3 4 4 6 8 9 10 11 14 15 15 15 15
7 7 5 5 4 3 4 4 3 5 7 5 4 3 3 3 3 2 2 2 2 6 6 6 6 5 6 4 5 7 8 10 11 14 15 16 15 14
6 6 5 5 5 4 4 4 3 3 3 6 2 6 3 3 4 3 3 2 3 3 6 6 7 7 7 4 5 7 8 9 11 12 14 14 12 12
6 4 5 7 10 7 5 5 5 4 5 7 4 4 5 5 9 4 4 3 3 3 3 3 3 2 3 5 6 6 8 9 10 13 15 12 8 10
5 5 5 6 7 9 9 11 9 8 8 6 5 8 10 8 7 7 5 3 2 5 4 2 4 3 3 3 7 4 6 8 11 12 13 9 7 13
8 5 5 3 5 6 7 8 10 12 9 12 11 10 9 11 11 10 7 4 4 1 4 2 4 3 2 3 8 4 5 9 11 13 12 8 6 13
7 7 6 8 6 7 8 5 8 8 7 6 8 7 5 8 9 4 7 5 5 2 3 3 3 2 2 3 7 5 5 7 10 11 12 6 6 9
6 7 7 8 9 9 6 10 8 8 9 9 7 10 12 15 10 11 7 7 1 3 4 2 2 2 1 2 4 6 3 5 7 9 11 8 5 7
8 6 9 11 10 11 6 6 9 8 8 8 4 5 8 16 20 10 10 9 4 2 5 5 3 3 0 2 1 1 2 6 3 10 11 10 8 3
7 8 5 11 14 11 10 6 9 7 6 9 11 9 9 10 9 6 9 8 6 3 6 6 4 3 2 1 0 2 2 2 1 3 5 9 12 7
6 3 4 12 16 17 11 13 13 9 5 7 7 8 8 6 7 9 9 5 3 2 12 5 4 5 4 2 2 1 2 2 0 1 3 3 7 12
2 5 9 11 15 13 13 15 12 4 5 6 8 9 8 8 8 8 7 7 5 4 9 4 4 5 4 4 4 3 4 2 2 2 3 4 4 3
7 6 10 9 13 13 8 9 6 5 4 5 4 3 6 6 8 8 7 9 4 3 5 2 5 5 4 2 3 4 3 4 2 3 2 3 4 4
10 9 8 6 3 7 4 7 7 6 4 4 5 4 5 6 8 10 9 8 6 6 5 3 5 6 5 5 4 4 4 3 2 4 2 0 4 4
10 9 9 7 4 5 6 7 8 7 6 5 5 5 6 8 7 7 9 10 9 8 6 4 7 5 4 5 8 5 3 4 1 3 2 1 1 4
9 7 9 8 6 6 5 8 7 8 5 6 6 7 6 5 7 8 8 9 9 9 9 9 9 5 5 4 2 7 6 3 3 3 3 2 1 3
8 7 8 9 7 7 6 6 7 6 7 6 6 5 6 6 7 8 9 9 9 8 7 8 9 9 10 9 6 1 7 6 4 4 3 2 3 9
8 8 8 8 8 7 6 6 7 6 7 6 5 6 6 3 5 8 8 10 11 10 11 12 10 9 8 6 5 3 4 9 7 5 6 1 1 1
9 9 7 8 8 8 7 4 6 4 4 5 5 5 4 4 6 4 7 10 11 12 12 8 9 9 3 4 5 6 4 4 13 15 13 2 4 5
8 8 7 8 7 7 6 5 5 4 3 3 4 4 4 4 4 4 3 5 12 12 11 9 9 6 3 7 10 7 8 5 4 2 6 17 2 9
Wind_Direction
217 237 232 227 187 211 196 187 149 164 198 175 147 121 119 104 117 114 111 120 116 120 121 115 42 6 335 338 336 338 331 336 335 333 334 343 350 359
245 252 240 240 201 185 178 192 193 155 168 169 130 130 140 119 134 119 127 122 130 133 149 139 345 345 344 336 339 343 343 341 339 333 332 340 347 353
274 280 269 275 270 193 200 182 169 158 146 139 112 136 126 141 131 122 122 117 144 158 172 179 195 262 318 340 348 345 343 340 341 328 329 334 338 345
242 254 260 271 286 231 229 213 173 158 125 156 134 136 140 151 149 143 140 129 168 189 192 211 204 235 281 335 349 339 336 339 340 328 327 323 327 336
249 244 241 236 242 234 208 249 263 171 147 145 151 138 112 146 122 121 164 141 203 212 202 213 221 229 269 295 337 336 341 347 335 333 325 320 321 330
296 250 225 229 223 222 240 236 200 156 119 133 233 145 116 143 130 168 160 196 185 209 207 211 222 239 256 265 309 333 354 343 338 327 323 320 323 333
333 313 274 247 242 216 202 202 174 165 157 153 188 153 153 157 192 176 170 155 196 196 201 209 191 237 268 280 280 330 345 345 340 334 333 326 334 349
310 315 299 286 276 273 215 202 191 175 175 169 179 196 193 180 166 163 158 146 228 184 182 241 178 214 238 244 252 292 330 343 336 338 334 338 359 15
300 304 305 301 312 282 275 208 221 211 180 183 190 189 189 187 164 162 178 173 159 229 167 218 165 228 215 229 240 257 316 342 335 337 331 327 346 27
288 295 300 299 309 314 317 280 220 220 207 186 191 191 157 179 177 145 159 124 104 139 182 186 156 198 210 216 233 250 298 340 337 348 344 328 15 50
269 280 288 290 288 306 315 290 283 224 195 191 155 172 169 146 170 124 157 146 165 161 193 146 192 136 166 222 230 233 273 355 344 26 7 358 7 58
292 262 267 278 285 294 295 279 270 265 207 159 155 122 161 171 174 161 154 166 128 145 176 181 145 146 261 272 209 168 60 55 59 48 24 10 360 56
279 289 282 279 293 296 286 271 263 264 230 211 188 184 168 175 173 162 172 163 162 198 164 160 149 143 98 190 213 120 100 72 307 19 2 27 35 37
275 304 333 321 305 306 304 277 258 278 269 219 199 172 170 161 173 179 176 177 165 163 157 171 142 159 137 153 165 83 66 52 158 29 12 327 49 53
309 304 312 305 306 300 285 269 270 238 241 258 225 209 202 185 152 155 151 125 86 108 159 165 146 153 135 139 159 153 114 62 97 79 31 349 11 351
304 310 311 295 278 267 279 278 229 212 221 246 253 250 215 180 182 170 162 163 112 111 91 99 145 137 122 109 124 125 130 142 125 74 62 357 24 11
306 301 298 299 298 297 250 250 237 211 199 225 237 214 198 190 201 186 164 161 159 156 150 88 80 90 79 133 107 114 130 96 143 122 75 104 41 3
282 271 271 270 262 271 298 255 233 214 189 186 228 233 202 186 193 174 153 165 165 164 151 145 146 112 71 38 68 124 96 120 137 95 87 280 74 20
261 255 256 260 258 262 264 284 232 214 194 181 206 214 215 197 176 177 167 172 171 168 167 152 168 146 122 138 323 55 124 117 117 76 23 328 82 41
245 241 243 252 251 249 248 276 240 202 192 190 186 221 209 202 186 181 177 176 167 156 158 170 175 183 167 162 152 123 56 128 118 109 106 61 75 103
247 235 233 245 250 243 240 248 266 214 190 181 169 192 208 183 200 199 191 181 158 168 177 182 185 104 109 100 80 92 48 64 92 150 141 146 202 31
245 240 234 235 239 239 238 236 265 223 193 191 157 192 195 203 188 192 203 188 181 177 184 153 139 136 112 123 128 130 105 81 86 91 66 24 196 181
251 241 239 240 238 239 217 235 246 235 188 184 156 177 183 188 177 164 168 209 189 180 164 150 152 152 108 141 137 135 126 120 135 76 11 357 300 121